User: anonymous   Login
Location: Orinda
(37.8771°N, 122.1797°W)
Time: 08:09:35
(UTC+00:00)
Language:

SL-8 R/B - Orbit

View from above orbital plane
View from above orbital plane
View from above satellite
View from above satellite

Ground track
Ground track

The orbit data is extracted from the following two-line orbital elements,

1 33066U 08031G   19345.81500095 -.00000121 +00000-0 +12528-4 0  9997
2 33066 048.4422 184.4769 0007713 350.6304 009.4462 14.69680564616201
Epoch (UTC): 11 December 2019 19:33:36
Eccentricity: 0.0007713
inclination: 48.4422°
perigee height: 656 km
apogee height: 667 km
right ascension of ascending node: 184.4769°
argument of perigee: 350.6304°
revolutions per day: 14.69680564
mean anomaly at epoch: 9.4462°
orbit number at epoch: 61620

The dashed part of the orbit path shows where the satellite is in the earth's shadow,  

DLR